Patuxent River, MD

3:50 AM EDT on June 29, 2017 (GMT -0400)
Patuxent River Naval Air Station

Weather History for KNHK - January, 2013

Change the Weather History Date:

Thursday, January 17, 2013

  Actual Average Record
Temperature  
Mean Temperature 40 °F -  
Max Temperature 45 °F 39 °F 61 °F (2012)
Min Temperature 35 °F 22 °F -3 °F (1977)
Degree Days  
Heating Degree Days 25    
Moisture  
Dew Point 36 °F    
Average Humidity 85    
Maximum Humidity 93    
Minimum Humidity 73    
Precipitation  
Precipitation 0.88 in - - ()
Sea Level Pressure  
Sea Level Pressure 30.07 in    
Wind  
Wind Speed 3 mph (NNW)    
Max Wind Speed 9 mph    
Max Gust Speed -    
Visibility 8 miles    
Events Rain , Snow    
Averages and records for this station are not official NWS values.
T = Trace of Precipitation, MM = Missing Value Source: NWS Daily Summary

Daily Weather History Graph

Daily Weather History Graph

Search for Another Location

Airport or City:

Trip Planner

Search our weather history database for the weather conditions in past years. The results will help you decide how hot, cold, wet, or windy it might be!

Date:

Astronomy

Jan. 17, 2013 Rise Set
Actual Time 7:20 AM EST 5:11 PM EST
Civil Twilight 6:51 AM EST 5:40 PM EST
Nautical Twilight 6:19 AM EST 6:12 PM EST
Astronomical Twilight 5:47 AM EST 6:44 PM EST
Moon 10:32 AM EST (1/17) 11:54 PM EST (1/17)
Length of Visible Light 10h 49m
Length of Day
9h 51m
Waxing Crescent, 37% of the Moon is Illuminated
Jan 17
Waxing Crescent
Jan 18
First Quarter
Jan 26
Full
Feb 3
Last Quarter
Feb 10
New

Hourly Weather History & Observations

Time (EST) Temp. Windchill Dew Point Humidity Pressure Visibility Wind Dir Wind Speed Gust Speed Precip Events Conditions
12:52 AM 44.1 °F - 41.0 °F 89% 30.00 in 10.0 mi Calm Calm - 0.00 in Rain Light Rain
1:52 AM 44.1 °F 42.5 °F 41.0 °F 89% 30.01 in 10.0 mi WNW 3.5 mph - 0.02 in Rain Light Rain
2:52 AM 44.1 °F - 42.1 °F 93% 30.02 in 7.0 mi Calm Calm - 0.03 in Rain Light Rain
3:52 AM 44.1 °F 42.5 °F 41.0 °F 89% 30.01 in 8.0 mi NNW 3.5 mph - 0.02 in Rain Light Rain
4:26 AM 44.6 °F 43.1 °F 41.0 °F 87% 30.01 in 9.0 mi West 3.5 mph - 0.02 in Rain Light Rain
4:52 AM 44.1 °F - 42.1 °F 93% 30.01 in 8.0 mi Calm Calm - 0.03 in Rain Light Rain
5:10 AM 44.6 °F 41.4 °F 41.0 °F 87% 30.04 in 7.0 mi West 5.8 mph - 0.01 in Rain Light Rain
5:52 AM 44.1 °F - 42.1 °F 93% 30.04 in 6.0 mi Calm Calm - 0.07 in Rain Rain
6:52 AM 44.1 °F - 42.1 °F 93% 30.04 in 6.0 mi Calm Calm - 0.09 in Rain Rain
7:52 AM 44.1 °F - 41.0 °F 89% 30.08 in 5.0 mi Calm Calm - 0.02 in Rain Light Rain
8:52 AM 45.0 °F - 42.1 °F 90% 30.13 in 5.0 mi Calm Calm - 0.01 in Rain Light Rain
9:52 AM 43.0 °F - 35.1 °F 74% 30.14 in 6.0 mi Calm Calm - 0.05 in Rain Light Rain
10:52 AM 43.0 °F 40.3 °F 36.0 °F 76% 30.12 in 10.0 mi NE 4.6 mph - 0.03 in Rain Light Rain
11:52 AM 43.0 °F - 35.1 °F 74% 30.10 in 6.0 mi Calm Calm - 0.03 in Rain Light Rain
12:52 PM 42.1 °F - 35.1 °F 76% 30.07 in 6.0 mi Calm Calm - 0.08 in Rain Light Rain
1:52 PM 41.0 °F 39.0 °F 34.0 °F 76% 30.08 in 10.0 mi North 3.5 mph - 0.06 in Rain Light Rain
2:52 PM 41.0 °F - 33.1 °F 73% 30.10 in 10.0 mi Calm Calm - 0.01 in Rain Light Rain
3:52 PM 39.9 °F 34.5 °F 34.0 °F 79% 30.08 in 10.0 mi North 8.1 mph - 0.02 in Rain Light Rain
4:20 PM 39.2 °F 35.0 °F 33.8 °F 81% 30.09 in 10.0 mi North 5.8 mph - 0.01 in Rain Light Rain
4:52 PM 39.0 °F 32.8 °F 33.1 °F 79% 30.12 in 7.0 mi NW 9.2 mph - 0.04 in Rain Light Rain
5:52 PM 37.9 °F 35.5 °F 33.1 °F 83% 30.11 in 8.0 mi North 3.5 mph - 0.07 in Rain Light Rain
6:13 PM 37.4 °F 31.4 °F 33.8 °F 87% 30.11 in 10.0 mi NE 8.1 mph - 0.01 in Rain Light Rain
6:52 PM 37.9 °F 35.5 °F 34.0 °F 86% 30.12 in 8.0 mi North 3.5 mph - 0.05 in Rain Light Rain
7:52 PM 37.0 °F 32.4 °F 33.1 °F 86% 30.10 in 10.0 mi NNE 5.8 mph - 0.06 in Rain Light Rain
8:31 PM 37.4 °F 31.4 °F 33.8 °F 87% 30.08 in 6.0 mi North 8.1 mph - 0.02 in Rain Light Rain
8:52 PM 36.0 °F 30.3 °F 33.1 °F 89% 30.04 in 7.0 mi North 6.9 mph - 0.04 in Rain Light Rain
9:19 PM 35.6 °F 29.9 °F 32.0 °F 87% 30.07 in 7.0 mi North 6.9 mph - 0.02 in Rain , Snow Light Rain
9:52 PM 36.0 °F - 33.1 °F 89% 30.09 in 6.0 mi Calm Calm - 0.05 in Rain , Snow Light Rain
10:01 PM 35.6 °F 31.7 °F 32.0 °F 87% 30.08 in 5.0 mi North 4.6 mph - N/A Rain Light Rain
10:52 PM 36.0 °F - 33.1 °F 89% 30.06 in 10.0 mi Calm Calm - N/A Rain Light Rain
10:59 PM 35.6 °F 31.7 °F 33.8 °F 93% 30.04 in 9.0 mi North 4.6 mph - 0.00 in   Overcast
11:12 PM 37.4 °F 34.9 °F 33.8 °F 87% 30.03 in 9.0 mi NW 3.5 mph - 0.00 in   Overcast
11:52 PM 36.0 °F 32.1 °F 33.1 °F 89% 30.07 in 7.0 mi West 4.6 mph - 0.00 in   Overcast